Wetterdaten: Freitag, 11.10.2013
Datum Zeit Temperatur Luftfeuchte Luftdruck Regen Wind Richtung Richtung Taupunkt Windchill Windben
11.10.2013 00:00 1,1 C 98 % 1013,1 hPa 0,0 l/m 0,2 km/h (0 Bft) SO 135 0,8 C 1,0 C 0,0 km/h (0 Bft)
11.10.2013 00:05 1,1 C 98 % 1013,0 hPa 0,0 l/m 0,0 km/h (0 Bft) S-SO 157 0,8 C 1,0 C 0,0 km/h (0 Bft)
11.10.2013 00:10 1,1 C 98 % 1013,0 hPa 0,0 l/m 0,0 km/h (0 Bft) SO 135 0,8 C 1,0 C 0,0 km/h (0 Bft)
11.10.2013 00:15 1,1 C 98 % 1013,0 hPa 0,7 l/m 0,0 km/h (0 Bft) S-SO 157 0,8 C 1,0 C 0,0 km/h (0 Bft)
11.10.2013 00:21 1,1 C 98 % 1013,0 hPa 0,0 l/m 0,0 km/h (0 Bft) SO 135 0,8 C 1,0 C 0,0 km/h (0 Bft)
11.10.2013 00:25 1,0 C 98 % 1013,2 hPa 0,0 l/m 0,0 km/h (0 Bft) N-NW 337 0,7 C 0,9 C 0,0 km/h (0 Bft)
11.10.2013 00:30 1,0 C 98 % 1013,2 hPa 0,0 l/m 0,0 km/h (0 Bft) N 360 0,7 C 0,9 C 0,0 km/h (0 Bft)
11.10.2013 00:35 1,0 C 98 % 1013,2 hPa 0,0 l/m 0,0 km/h (0 Bft) N 360 0,7 C 0,9 C 0,0 km/h (0 Bft)
11.10.2013 00:40 0,9 C 98 % 1013,2 hPa 0,0 l/m 0,0 km/h (0 Bft) N 360 0,6 C 0,8 C 0,0 km/h (0 Bft)
11.10.2013 00:45 0,9 C 98 % 1013,1 hPa 0,0 l/m 0,0 km/h (0 Bft) N 360 0,6 C 0,8 C 2,3 km/h (1 Bft)
11.10.2013 00:50 0,8 C 98 % 1013,1 hPa 0,0 l/m 0,5 km/h (0 Bft) NO 45 0,5 C 0,8 C 0,0 km/h (0 Bft)
11.10.2013 00:55 0,8 C 98 % 1013,1 hPa 0,0 l/m 0,5 km/h (0 Bft) W 270 0,5 C 0,6 C 3,4 km/h (1 Bft)
11.10.2013 01:00 0,6 C 98 % 1013,1 hPa 0,0 l/m 0,2 km/h (0 Bft) NO 45 0,3 C 0,5 C 0,0 km/h (0 Bft)
11.10.2013 01:05 0,6 C 98 % 1013,0 hPa 0,0 l/m 0,2 km/h (0 Bft) W-NW 292 0,3 C 0,4 C 0,0 km/h (0 Bft)
11.10.2013 01:10 0,5 C 98 % 1013,0 hPa 0,0 l/m 0,2 km/h (0 Bft) O-NO 67 0,2 C 0,4 C 2,1 km/h (1 Bft)
11.10.2013 01:15 0,6 C 98 % 1013,0 hPa 0,0 l/m 0,3 km/h (0 Bft) O 90 0,3 C 0,3 C 0,0 km/h (0 Bft)
11.10.2013 01:20 0,6 C 98 % 1013,0 hPa 0,7 l/m 0,3 km/h (0 Bft) N 360 0,3 C 0,4 C 0,0 km/h (0 Bft)
11.10.2013 01:25 0,6 C 98 % 1012,6 hPa 0,0 l/m 0,0 km/h (0 Bft) NO 45 0,3 C 0,4 C 0,0 km/h (0 Bft)
11.10.2013 01:30 0,6 C 98 % 1012,6 hPa 0,0 l/m 0,0 km/h (0 Bft) O 90 0,3 C 0,4 C 0,0 km/h (0 Bft)
11.10.2013 01:35 0,5 C 98 % 1012,6 hPa 0,0 l/m 0,0 km/h (0 Bft) O 90 0,2 C 0,3 C 0,0 km/h (0 Bft)
11.10.2013 01:40 0,5 C 98 % 1012,6 hPa 0,0 l/m 0,0 km/h (0 Bft) O 90 0,2 C 0,3 C 0,0 km/h (0 Bft)
11.10.2013 01:45 0,4 C 98 % 1012,5 hPa 0,0 l/m 0,0 km/h (0 Bft) O 90 0,1 C 0,2 C 0,0 km/h (0 Bft)
11.10.2013 01:50 0,4 C 98 % 1012,5 hPa 0,0 l/m 0,0 km/h (0 Bft) N 360 0,1 C 0,2 C 0,0 km/h (0 Bft)
11.10.2013 01:55 0,3 C 98 % 1012,5 hPa 0,0 l/m 0,0 km/h (0 Bft) N 360 0,0 C 0,2 C 0,0 km/h (0 Bft)
11.10.2013 02:00 0,3 C 98 % 1012,5 hPa 0,0 l/m 0,0 km/h (0 Bft) N 360 0,0 C 0,2 C 0,0 km/h (0 Bft)
11.10.2013 02:05 0,3 C 98 % 1012,3 hPa 0,0 l/m 0,0 km/h (0 Bft) N 360 0,0 C 0,2 C 0,0 km/h (0 Bft)
11.10.2013 02:10 0,3 C 98 % 1012,3 hPa 0,0 l/m 0,0 km/h (0 Bft) N 360 0,0 C 0,2 C 0,0 km/h (0 Bft)
11.10.2013 02:15 0,2 C 98 % 1012,3 hPa 0,0 l/m 0,3 km/h (0 Bft) NO 45 -0,1 C 0,2 C 0,0 km/h (0 Bft)
11.10.2013 02:20 0,2 C 98 % 1012,3 hPa 0,0 l/m 0,5 km/h (0 Bft) O-SO 112 -0,1 C 0,2 C 0,0 km/h (0 Bft)
11.10.2013 02:25 0,2 C 98 % 1012,1 hPa 0,0 l/m 0,3 km/h (0 Bft) O-SO 112 -0,1 C 0,2 C 0,0 km/h (0 Bft)
11.10.2013 02:30 0,2 C 98 % 1012,1 hPa 0,0 l/m 0,0 km/h (0 Bft) O-SO 112 -0,1 C 0,2 C 0,0 km/h (0 Bft)
11.10.2013 02:35 0,2 C 98 % 1012,1 hPa 0,0 l/m 0,0 km/h (0 Bft) O-SO 112 -0,1 C 0,2 C 0,0 km/h (0 Bft)
11.10.2013 02:40 0,2 C 98 % 1012,1 hPa 0,0 l/m 0,0 km/h (0 Bft) O-SO 112 -0,1 C 0,2 C 0,0 km/h (0 Bft)
11.10.2013 02:45 0,2 C 98 % 1012,2 hPa 0,0 l/m 0,0 km/h (0 Bft) O-SO 112 -0,1 C 0,2 C 0,0 km/h (0 Bft)
11.10.2013 02:50 0,2 C 98 % 1012,2 hPa 0,0 l/m 0,0 km/h (0 Bft) O-SO 112 -0,1 C 0,2 C 0,0 km/h (0 Bft)
11.10.2013 02:55 0,2 C 98 % 1012,2 hPa 0,0 l/m 0,0 km/h (0 Bft) O-SO 112 -0,1 C 0,2 C 0,0 km/h (0 Bft)
11.10.2013 03:00 0,2 C 98 % 1012,2 hPa 0,0 l/m 0,0 km/h (0 Bft) O-SO 112 -0,1 C 0,2 C 0,0 km/h (0 Bft)
11.10.2013 03:05 0,2 C 98 % 1011,9 hPa 0,0 l/m 0,0 km/h (0 Bft) O-SO 112 -0,1 C 0,2 C 0,0 km/h (0 Bft)
11.10.2013 03:10 0,2 C 98 % 1011,9 hPa 0,0 l/m 0,0 km/h (0 Bft) O-SO 112 -0,1 C 0,2 C 0,0 km/h (0 Bft)
11.10.2013 03:15 0,2 C 98 % 1011,9 hPa 0,0 l/m 0,0 km/h (0 Bft) O-SO 112 -0,1 C 0,2 C 0,0 km/h (0 Bft)
11.10.2013 03:20 0,2 C 98 % 1011,9 hPa 0,0 l/m 0,0 km/h (0 Bft) O-SO 112 -0,1 C 0,2 C 0,0 km/h (0 Bft)
11.10.2013 03:25 0,2 C 98 % 1011,8 hPa 0,0 l/m 0,0 km/h (0 Bft) O-SO 112 -0,1 C 0,2 C 0,0 km/h (0 Bft)
11.10.2013 03:30 0,2 C 98 % 1011,8 hPa 0,0 l/m 0,0 km/h (0 Bft) O-SO 112 -0,1 C 0,2 C 0,0 km/h (0 Bft)
11.10.2013 03:35 0,2 C 98 % 1011,8 hPa 0,0 l/m 0,0 km/h (0 Bft) O 90 -0,1 C 0,2 C 0,0 km/h (0 Bft)
11.10.2013 03:40 0,2 C 98 % 1011,8 hPa 0,0 l/m 0,0 km/h (0 Bft) O 90 -0,1 C 0,2 C 0,0 km/h (0 Bft)
11.10.2013 03:45 0,2 C 98 % 1011,4 hPa 0,0 l/m 0,0 km/h (0 Bft) O 90 -0,1 C 0,2 C 0,0 km/h (0 Bft)
11.10.2013 03:50 0,2 C 98 % 1011,4 hPa 0,0 l/m 0,0 km/h (0 Bft) O 90 -0,1 C 0,2 C 0,0 km/h (0 Bft)
11.10.2013 03:55 0,2 C 98 % 1011,4 hPa 0,0 l/m 0,0 km/h (0 Bft) O 90 -0,1 C 0,2 C 0,0 km/h (0 Bft)
11.10.2013 04:00 0,2 C 98 % 1011,4 hPa 0,0 l/m 0,0 km/h (0 Bft) O 90 -0,1 C 0,2 C 0,0 km/h (0 Bft)
11.10.2013 04:05 0,1 C 98 % 1011,5 hPa 0,0 l/m 0,0 km/h (0 Bft) O 90 -0,2 C 0,2 C 0,0 km/h (0 Bft)
11.10.2013 04:10 0,2 C 98 % 1011,5 hPa 0,0 l/m 0,0 km/h (0 Bft) O 90 -0,1 C 0,2 C 0,0 km/h (0 Bft)
11.10.2013 04:15 0,2 C 98 % 1011,5 hPa 0,0 l/m 0,0 km/h (0 Bft) O 90 -0,1 C 0,2 C 0,0 km/h (0 Bft)
11.10.2013 04:20 0,2 C 98 % 1011,5 hPa 0,0 l/m 0,0 km/h (0 Bft) O 90 -0,1 C 0,2 C 0,0 km/h (0 Bft)
11.10.2013 04:25 0,2 C 98 % 1012,1 hPa 0,0 l/m 0,0 km/h (0 Bft) O 90 -0,1 C 0,2 C 0,0 km/h (0 Bft)
11.10.2013 04:30 0,2 C 98 % 1012,1 hPa 0,0 l/m 0,0 km/h (0 Bft) O 90 -0,1 C 0,2 C 0,0 km/h (0 Bft)
11.10.2013 04:35 0,2 C 98 % 1012,1 hPa 0,0 l/m 0,0 km/h (0 Bft) O-NO 67 -0,1 C 0,2 C 0,0 km/h (0 Bft)
11.10.2013 04:40 0,2 C 98 % 1012,1 hPa 0,0 l/m 0,0 km/h (0 Bft) O-NO 67 -0,1 C 0,2 C 0,0 km/h (0 Bft)
11.10.2013 04:45 0,2 C 98 % 1011,6 hPa 0,0 l/m 0,0 km/h (0 Bft) O-NO 67 -0,1 C 0,2 C 0,0 km/h (0 Bft)
11.10.2013 04:50 0,2 C 98 % 1011,6 hPa 0,0 l/m 0,0 km/h (0 Bft) O-NO 67 -0,1 C 0,2 C 0,0 km/h (0 Bft)
11.10.2013 04:55 0,2 C 98 % 1011,6 hPa 0,0 l/m 0,0 km/h (0 Bft) O-NO 67 -0,1 C 0,2 C 0,0 km/h (0 Bft)
11.10.2013 05:00 0,2 C 98 % 1011,6 hPa 0,0 l/m 0,0 km/h (0 Bft) O-NO 67 -0,1 C 0,2 C 0,0 km/h (0 Bft)
11.10.2013 05:05 0,2 C 98 % 1011,4 hPa 0,0 l/m 0,0 km/h (0 Bft) O-NO 67 -0,1 C 0,2 C 0,0 km/h (0 Bft)
11.10.2013 05:08 0,1 C 98 % 1011,4 hPa 0,0 l/m 0,0 km/h (0 Bft) O-NO 67 -0,2 C 0,2 C 0,0 km/h (0 Bft)
11.10.2013 05:10 0,1 C 98 % 1011,4 hPa 0,0 l/m 0,0 km/h (0 Bft) O-NO 67 -0,2 C 0,2 C 0,0 km/h (0 Bft)
11.10.2013 05:15 0,1 C 98 % 1011,4 hPa 0,0 l/m 0,0 km/h (0 Bft) O-NO 67 -0,2 C 0,2 C 0,0 km/h (0 Bft)
11.10.2013 05:20 0,1 C 98 % 1011,4 hPa 0,0 l/m 0,0 km/h (0 Bft) O-NO 67 -0,2 C 0,2 C 0,0 km/h (0 Bft)
11.10.2013 05:25 0,1 C 98 % 1011,1 hPa 0,0 l/m 0,0 km/h (0 Bft) O-NO 67 -0,2 C 0,2 C 0,0 km/h (0 Bft)
11.10.2013 05:30 0,1 C 98 % 1011,1 hPa 0,0 l/m 0,0 km/h (0 Bft) O-NO 67 -0,2 C 0,2 C 0,0 km/h (0 Bft)
11.10.2013 05:35 0,1 C 98 % 1011,1 hPa 0,0 l/m 0,0 km/h (0 Bft) O-NO 67 -0,2 C 0,2 C 0,0 km/h (0 Bft)
11.10.2013 05:40 0,1 C 98 % 1011,1 hPa 0,0 l/m 0,0 km/h (0 Bft) O-NO 67 -0,2 C 0,2 C 0,0 km/h (0 Bft)
11.10.2013 05:45 0,1 C 98 % 1012,0 hPa 0,0 l/m 0,0 km/h (0 Bft) O-NO 67 -0,2 C 0,2 C 0,0 km/h (0 Bft)
11.10.2013 05:50 0,1 C 98 % 1012,0 hPa 0,0 l/m 0,0 km/h (0 Bft) O-NO 67 -0,2 C 0,2 C 0,0 km/h (0 Bft)
11.10.2013 05:55 0,1 C 98 % 1012,0 hPa 0,0 l/m 0,0 km/h (0 Bft) O-NO 67 -0,2 C 0,2 C 0,0 km/h (0 Bft)
11.10.2013 06:00 0,1 C 98 % 1012,0 hPa 0,0 l/m 0,0 km/h (0 Bft) O-NO 67 -0,2 C 0,2 C 0,0 km/h (0 Bft)
11.10.2013 06:05 0,1 C 98 % 1011,4 hPa 0,0 l/m 0,0 km/h (0 Bft) O-NO 67 -0,2 C 0,2 C 0,0 km/h (0 Bft)
11.10.2013 06:10 0,1 C 98 % 1011,4 hPa 0,0 l/m 0,0 km/h (0 Bft) O-NO 67 -0,2 C 0,2 C 0,0 km/h (0 Bft)
11.10.2013 06:15 0,1 C 98 % 1011,4 hPa 0,0 l/m 0,0 km/h (0 Bft) O-NO 67 -0,2 C 0,2 C 0,0 km/h (0 Bft)
11.10.2013 06:20 0,1 C 98 % 1011,4 hPa 0,0 l/m 0,0 km/h (0 Bft) O-NO 67 -0,2 C 0,2 C 0,0 km/h (0 Bft)
11.10.2013 06:25 0,2 C 98 % 1011,6 hPa 0,0 l/m 0,0 km/h (0 Bft) O-NO 67 -0,1 C 0,2 C 0,0 km/h (0 Bft)
11.10.2013 06:30 0,2 C 98 % 1011,6 hPa 0,0 l/m 0,0 km/h (0 Bft) O-NO 67 -0,1 C 0,2 C 0,0 km/h (0 Bft)
11.10.2013 06:35 0,2 C 98 % 1011,6 hPa 0,0 l/m 0,0 km/h (0 Bft) O-NO 67 -0,1 C 0,2 C 0,0 km/h (0 Bft)
11.10.2013 06:40 0,1 C 98 % 1011,6 hPa 0,0 l/m 0,0 km/h (0 Bft) O-NO 67 -0,2 C 0,2 C 0,0 km/h (0 Bft)
11.10.2013 06:45 0,1 C 98 % 1011,6 hPa 0,7 l/m 0,0 km/h (0 Bft) O-NO 67 -0,2 C 0,2 C 0,0 km/h (0 Bft)
11.10.2013 06:48 0,1 C 98 % 1011,6 hPa 0,0 l/m 0,0 km/h (0 Bft) O-NO 67 -0,2 C 0,2 C 0,0 km/h (0 Bft)
11.10.2013 06:53 0,1 C 98 % 1011,6 hPa 0,0 l/m 0,0 km/h (0 Bft) O-NO 67 -0,2 C 0,2 C 0,0 km/h (0 Bft)
11.10.2013 06:58 0,1 C 98 % 1011,6 hPa 0,0 l/m 0,0 km/h (0 Bft) O-NO 67 -0,2 C 0,2 C 0,0 km/h (0 Bft)
11.10.2013 07:03 0,1 C 98 % 1011,9 hPa 0,0 l/m 0,0 km/h (0 Bft) O-NO 67 -0,2 C 0,2 C 0,0 km/h (0 Bft)
11.10.2013 07:08 0,2 C 98 % 1011,9 hPa 0,0 l/m 0,0 km/h (0 Bft) O-NO 67 -0,1 C 0,2 C 0,0 km/h (0 Bft)
11.10.2013 07:13 0,2 C 98 % 1011,9 hPa 0,0 l/m 0,0 km/h (0 Bft) O-NO 67 -0,1 C 0,2 C 0,0 km/h (0 Bft)
11.10.2013 07:18 0,1 C 98 % 1011,9 hPa 0,0 l/m 0,0 km/h (0 Bft) O-NO 67 -0,2 C 0,2 C 0,0 km/h (0 Bft)
11.10.2013 07:23 0,1 C 98 % 1012,1 hPa 0,0 l/m 0,0 km/h (0 Bft) O-NO 67 -0,2 C 0,2 C 0,0 km/h (0 Bft)
11.10.2013 07:28 0,1 C 98 % 1012,1 hPa 0,0 l/m 0,0 km/h (0 Bft) O-NO 67 -0,2 C 0,2 C 0,0 km/h (0 Bft)
11.10.2013 07:33 0,2 C 98 % 1012,1 hPa 0,0 l/m 0,0 km/h (0 Bft) O-NO 67 -0,1 C 0,2 C 0,0 km/h (0 Bft)
11.10.2013 07:38 0,2 C 98 % 1012,1 hPa 0,0 l/m 0,0 km/h (0 Bft) O-NO 67 -0,1 C 0,2 C 0,0 km/h (0 Bft)
11.10.2013 07:43 0,2 C 98 % 1012,1 hPa 0,0 l/m 0,0 km/h (0 Bft) O-NO 67 -0,1 C 0,2 C 0,0 km/h (0 Bft)
11.10.2013 07:48 0,2 C 98 % 1012,1 hPa 0,0 l/m 0,0 km/h (0 Bft) O-NO 67 -0,1 C 0,2 C 0,0 km/h (0 Bft)
11.10.2013 07:53 0,2 C 98 % 1012,1 hPa 0,7 l/m 0,0 km/h (0 Bft) O-NO 67 -0,1 C 0,2 C 0,0 km/h (0 Bft)
11.10.2013 07:58 0,3 C 98 % 1012,1 hPa 0,0 l/m 0,0 km/h (0 Bft) O-NO 67 0,0 C 0,2 C 0,0 km/h (0 Bft)
11.10.2013 08:03 0,3 C 98 % 1012,3 hPa 0,0 l/m 0,0 km/h (0 Bft) O-NO 67 0,0 C 0,2 C 0,0 km/h (0 Bft)
11.10.2013 08:08 0,3 C 98 % 1012,3 hPa 0,0 l/m 0,0 km/h (0 Bft) O-NO 67 0,0 C 0,2 C 0,0 km/h (0 Bft)
11.10.2013 08:13 0,4 C 98 % 1012,3 hPa 0,0 l/m 0,0 km/h (0 Bft) O-NO 67 0,1 C 0,3 C 0,0 km/h (0 Bft)
11.10.2013 08:18 0,4 C 98 % 1012,3 hPa 0,0 l/m 0,0 km/h (0 Bft) O-NO 67 0,1 C 0,3 C 0,0 km/h (0 Bft)
11.10.2013 08:23 0,4 C 98 % 1012,1 hPa 0,0 l/m 0,0 km/h (0 Bft) O-NO 67 0,1 C 0,4 C 0,0 km/h (0 Bft)
11.10.2013 08:28 0,4 C 98 % 1012,1 hPa 0,0 l/m 0,0 km/h (0 Bft) O-NO 67 0,1 C 0,4 C 0,0 km/h (0 Bft)
11.10.2013 08:31 0,4 C 98 % 1012,1 hPa 0,0 l/m 0,0 km/h (0 Bft) O-NO 67 0,1 C 0,4 C 0,0 km/h (0 Bft)
11.10.2013 08:35 0,4 C 98 % 1012,1 hPa 0,0 l/m 0,0 km/h (0 Bft) O-NO 67 0,1 C 0,4 C 0,0 km/h (0 Bft)
11.10.2013 08:40 0,4 C 98 % 1012,1 hPa 0,0 l/m 0,0 km/h (0 Bft) O-NO 67 0,1 C 0,4 C 0,0 km/h (0 Bft)
11.10.2013 08:45 0,4 C 98 % 1012,1 hPa 0,0 l/m 0,0 km/h (0 Bft) O-NO 67 0,1 C 0,6 C 0,0 km/h (0 Bft)
11.10.2013 08:50 0,4 C 98 % 1012,1 hPa 0,0 l/m 0,0 km/h (0 Bft) O-NO 67 0,1 C 0,6 C 0,0 km/h (0 Bft)
11.10.2013 08:55 0,4 C 98 % 1012,1 hPa 0,0 l/m 0,0 km/h (0 Bft) O-NO 67 0,1 C 0,6 C 0,0 km/h (0 Bft)
11.10.2013 09:00 0,4 C 98 % 1012,1 hPa 0,0 l/m 0,0 km/h (0 Bft) O-NO 67 0,1 C 0,7 C 0,0 km/h (0 Bft)
11.10.2013 09:05 0,4 C 98 % 1012,2 hPa 0,0 l/m 0,0 km/h (0 Bft) O-NO 67 0,1 C 0,8 C 0,0 km/h (0 Bft)
11.10.2013 09:10 0,4 C 98 % 1012,2 hPa 0,0 l/m 0,0 km/h (0 Bft) O-NO 67 0,1 C 0,9 C 0,0 km/h (0 Bft)
11.10.2013 09:15 0,4 C 98 % 1012,2 hPa 0,0 l/m 0,0 km/h (0 Bft) O-NO 67 0,1 C 1,0 C 0,0 km/h (0 Bft)
11.10.2013 09:20 0,4 C 98 % 1012,2 hPa 0,0 l/m 0,0 km/h (0 Bft) O-NO 67 0,1 C 1,0 C 0,0 km/h (0 Bft)
11.10.2013 09:25 0,4 C 98 % 1012,6 hPa 0,0 l/m 0,0 km/h (0 Bft) O-NO 67 0,1 C 1,0 C 0,0 km/h (0 Bft)
11.10.2013 09:30 0,4 C 98 % 1012,6 hPa 0,0 l/m 0,0 km/h (0 Bft) O-NO 67 0,1 C 1,0 C 0,0 km/h (0 Bft)
11.10.2013 09:35 0,4 C 98 % 1012,6 hPa 0,0 l/m 0,0 km/h (0 Bft) O-NO 67 0,1 C 1,0 C 0,0 km/h (0 Bft)
11.10.2013 09:40 0,4 C 98 % 1012,6 hPa 0,0 l/m 0,0 km/h (0 Bft) O-NO 67 0,1 C 1,2 C 0,0 km/h (0 Bft)
11.10.2013 09:45 0,4 C 98 % 1012,6 hPa 0,0 l/m 0,0 km/h (0 Bft) O-NO 67 0,1 C 1,4 C 0,0 km/h (0 Bft)
11.10.2013 09:50 0,4 C 98 % 1012,6 hPa 0,0 l/m 0,0 km/h (0 Bft) O-NO 67 0,1 C 1,4 C 0,0 km/h (0 Bft)
11.10.2013 09:55 0,4 C 98 % 1012,6 hPa 0,0 l/m 0,0 km/h (0 Bft) O-NO 67 0,1 C 1,7 C 0,0 km/h (0 Bft)
11.10.2013 10:00 0,4 C 98 % 1012,6 hPa 0,0 l/m 0,0 km/h (0 Bft) O-NO 67 0,1 C 1,7 C 0,0 km/h (0 Bft)
11.10.2013 10:05 0,4 C 98 % 1012,9 hPa 0,7 l/m 0,0 km/h (0 Bft) O-SO 112 0,1 C 2,0 C 0,0 km/h (0 Bft)
11.10.2013 10:10 0,4 C 98 % 1012,9 hPa 0,0 l/m 0,0 km/h (0 Bft) O-SO 112 0,1 C 2,5 C 0,0 km/h (0 Bft)
11.10.2013 10:15 0,4 C 98 % 1012,9 hPa 0,0 l/m 0,0 km/h (0 Bft) O-SO 112 0,1 C 2,6 C 0,0 km/h (0 Bft)
11.10.2013 10:20 0,4 C 98 % 1012,9 hPa 0,0 l/m 0,0 km/h (0 Bft) O-SO 112 0,1 C 2,6 C 0,0 km/h (0 Bft)
11.10.2013 10:25 0,4 C 98 % 1013,1 hPa 0,0 l/m 0,0 km/h (0 Bft) O-SO 112 0,1 C 2,8 C 0,0 km/h (0 Bft)
11.10.2013 10:30 0,4 C 98 % 1013,1 hPa 0,0 l/m 0,0 km/h (0 Bft) O-SO 112 0,1 C 2,9 C 0,0 km/h (0 Bft)
11.10.2013 10:35 0,4 C 98 % 1013,1 hPa 0,0 l/m 0,0 km/h (0 Bft) O-SO 112 0,1 C 3,5 C 0,0 km/h (0 Bft)
11.10.2013 10:40 0,4 C 98 % 1013,1 hPa 0,0 l/m 0,0 km/h (0 Bft) O-SO 112 0,1 C 3,7 C 0,0 km/h (0 Bft)
11.10.2013 10:45 0,4 C 98 % 1013,6 hPa 0,0 l/m 0,0 km/h (0 Bft) O-SO 112 0,1 C 4,3 C 0,0 km/h (0 Bft)
11.10.2013 10:50 0,4 C 98 % 1013,6 hPa 0,0 l/m 0,0 km/h (0 Bft) O-SO 112 0,1 C 4,6 C 0,0 km/h (0 Bft)
11.10.2013 10:55 0,4 C 98 % 1013,6 hPa 0,0 l/m 0,0 km/h (0 Bft) O-SO 112 0,1 C 4,7 C 0,0 km/h (0 Bft)
11.10.2013 11:00 0,4 C 98 % 1013,6 hPa 0,0 l/m 0,0 km/h (0 Bft) O-SO 112 0,1 C 4,7 C 0,0 km/h (0 Bft)
11.10.2013 11:05 0,4 C 98 % 1013,6 hPa 0,0 l/m 0,0 km/h (0 Bft) O-SO 112 0,1 C 4,7 C 0,0 km/h (0 Bft)
11.10.2013 11:10 0,4 C 98 % 1013,6 hPa 0,0 l/m 0,0 km/h (0 Bft) O-SO 112 0,1 C 4,7 C 0,0 km/h (0 Bft)
11.10.2013 11:15 0,4 C 98 % 1013,6 hPa 0,0 l/m 0,0 km/h (0 Bft) O-SO 112 0,1 C 4,7 C 0,0 km/h (0 Bft)
11.10.2013 11:20 0,4 C 98 % 1013,6 hPa 0,0 l/m 0,0 km/h (0 Bft) O-SO 112 0,1 C 4,7 C 0,0 km/h (0 Bft)
11.10.2013 11:25 0,4 C 98 % 1013,8 hPa 0,0 l/m 0,0 km/h (0 Bft) O-SO 112 0,1 C 4,7 C 0,0 km/h (0 Bft)
11.10.2013 11:30 0,4 C 98 % 1013,8 hPa 0,0 l/m 0,0 km/h (0 Bft) O-SO 112 0,1 C 4,7 C 0,0 km/h (0 Bft)
11.10.2013 11:35 0,4 C 98 % 1013,8 hPa 0,0 l/m 0,0 km/h (0 Bft) O-SO 112 0,1 C 4,7 C 0,0 km/h (0 Bft)
11.10.2013 11:40 0,4 C 98 % 1013,8 hPa 0,0 l/m 0,0 km/h (0 Bft) O-SO 112 0,1 C 4,7 C 0,0 km/h (0 Bft)
11.10.2013 11:45 0,4 C 98 % 1013,9 hPa 0,7 l/m 0,0 km/h (0 Bft) O-SO 112 0,1 C 4,7 C 0,0 km/h (0 Bft)
11.10.2013 11:50 0,4 C 98 % 1013,9 hPa 0,0 l/m 0,0 km/h (0 Bft) O-SO 112 0,1 C 4,7 C 0,0 km/h (0 Bft)
11.10.2013 11:55 0,4 C 98 % 1013,9 hPa 0,0 l/m 0,0 km/h (0 Bft) O-SO 112 0,1 C 4,7 C 0,0 km/h (0 Bft)
11.10.2013 12:00 0,4 C 98 % 1013,9 hPa 0,0 l/m 0,0 km/h (0 Bft) O-SO 112 0,1 C 4,7 C 0,0 km/h (0 Bft)
11.10.2013 12:05 0,4 C 98 % 1013,9 hPa 0,0 l/m 0,0 km/h (0 Bft) O-SO 112 0,1 C 4,7 C 0,0 km/h (0 Bft)
11.10.2013 12:10 0,4 C 98 % 1013,9 hPa 0,0 l/m 0,0 km/h (0 Bft) O-SO 112 0,1 C 4,7 C 0,0 km/h (0 Bft)
11.10.2013 12:15 0,4 C 98 % 1013,9 hPa 0,0 l/m 0,0 km/h (0 Bft) O-SO 112 0,1 C 4,7 C 0,0 km/h (0 Bft)
11.10.2013 12:20 0,4 C 98 % 1013,9 hPa 0,0 l/m 0,0 km/h (0 Bft) O-SO 112 0,1 C 4,7 C 0,0 km/h (0 Bft)
11.10.2013 12:25 0,4 C 98 % 1014,1 hPa 0,0 l/m 0,0 km/h (0 Bft) O-SO 112 0,1 C 4,7 C 0,0 km/h (0 Bft)
11.10.2013 12:30 0,4 C 98 % 1014,1 hPa 0,0 l/m 0,0 km/h (0 Bft) O-SO 112 0,1 C 4,7 C 0,0 km/h (0 Bft)
11.10.2013 12:35 0,4 C 98 % 1014,1 hPa 0,0 l/m 0,0 km/h (0 Bft) O-SO 112 0,1 C 4,7 C 0,0 km/h (0 Bft)
11.10.2013 12:40 0,4 C 98 % 1014,1 hPa 0,0 l/m 0,0 km/h (0 Bft) O-SO 112 0,1 C 4,7 C 0,0 km/h (0 Bft)
11.10.2013 12:45 0,4 C 98 % 1013,9 hPa 0,0 l/m 0,0 km/h (0 Bft) O-SO 112 0,1 C 4,7 C 0,0 km/h (0 Bft)
11.10.2013 12:50 0,4 C 98 % 1013,9 hPa 0,0 l/m 0,0 km/h (0 Bft) O-SO 112 0,1 C 4,7 C 0,0 km/h (0 Bft)
11.10.2013 12:55 0,4 C 98 % 1013,9 hPa 0,0 l/m 0,0 km/h (0 Bft) O-SO 112 0,1 C 4,7 C 0,0 km/h (0 Bft)
11.10.2013 13:00 0,4 C 98 % 1013,9 hPa 0,7 l/m 0,0 km/h (0 Bft) O-SO 112 0,1 C 4,7 C 0,0 km/h (0 Bft)
11.10.2013 13:05 0,4 C 98 % 1014,4 hPa 0,0 l/m 0,0 km/h (0 Bft) O-SO 112 0,1 C 4,7 C 0,0 km/h (0 Bft)
11.10.2013 13:10 0,4 C 98 % 1014,4 hPa 0,7 l/m 0,0 km/h (0 Bft) O-SO 112 0,1 C 4,7 C 0,0 km/h (0 Bft)
11.10.2013 13:15 0,4 C 98 % 1014,4 hPa 0,0 l/m 0,0 km/h (0 Bft) O-SO 112 0,1 C 4,7 C 0,0 km/h (0 Bft)
11.10.2013 13:20 0,4 C 98 % 1014,4 hPa 0,0 l/m 0,0 km/h (0 Bft) O-SO 112 0,1 C 4,7 C 0,0 km/h (0 Bft)
11.10.2013 13:25 0,4 C 98 % 1014,5 hPa 0,7 l/m 0,0 km/h (0 Bft) O-SO 112 0,1 C 4,7 C 0,0 km/h (0 Bft)
11.10.2013 13:30 0,4 C 98 % 1014,5 hPa 0,7 l/m 0,0 km/h (0 Bft) O-SO 112 0,1 C 4,7 C 0,0 km/h (0 Bft)
11.10.2013 13:35 0,4 C 98 % 1014,5 hPa 0,0 l/m 0,0 km/h (0 Bft) O-SO 112 0,1 C 4,7 C 0,0 km/h (0 Bft)
11.10.2013 13:40 0,4 C 98 % 1014,5 hPa 0,0 l/m 0,0 km/h (0 Bft) O-SO 112 0,1 C 4,7 C 0,0 km/h (0 Bft)
11.10.2013 13:45 0,4 C 98 % 1014,8 hPa 0,7 l/m 0,0 km/h (0 Bft) O-SO 112 0,1 C 4,7 C 0,0 km/h (0 Bft)
11.10.2013 13:50 0,4 C 98 % 1014,8 hPa 0,0 l/m 0,0 km/h (0 Bft) O-SO 112 0,1 C 4,7 C 0,0 km/h (0 Bft)
11.10.2013 13:55 0,4 C 98 % 1014,8 hPa 0,7 l/m 0,0 km/h (0 Bft) O-SO 112 0,1 C 4,7 C 0,0 km/h (0 Bft)
11.10.2013 14:00 0,4 C 98 % 1014,8 hPa 0,0 l/m 0,0 km/h (0 Bft) O-SO 112 0,1 C 4,7 C 0,0 km/h (0 Bft)
11.10.2013 14:05 0,4 C 98 % 1014,9 hPa 0,7 l/m 0,0 km/h (0 Bft) O-SO 112 0,1 C 4,7 C 0,0 km/h (0 Bft)
11.10.2013 14:10 0,4 C 98 % 1014,9 hPa 0,0 l/m 0,0 km/h (0 Bft) O-SO 112 0,1 C 4,7 C 0,0 km/h (0 Bft)
11.10.2013 14:15 0,4 C 98 % 1014,9 hPa 0,7 l/m 0,0 km/h (0 Bft) O-SO 112 0,1 C 4,7 C 0,0 km/h (0 Bft)
11.10.2013 14:20 0,4 C 98 % 1014,9 hPa 0,0 l/m 0,0 km/h (0 Bft) O-SO 112 0,1 C 4,7 C 0,0 km/h (0 Bft)
11.10.2013 14:25 0,4 C 98 % 1015,0 hPa 0,7 l/m 0,0 km/h (0 Bft) O-SO 112 0,1 C 4,7 C 0,0 km/h (0 Bft)
11.10.2013 14:30 0,4 C 98 % 1015,0 hPa 0,0 l/m 0,0 km/h (0 Bft) O-SO 112 0,1 C 4,7 C 0,0 km/h (0 Bft)
11.10.2013 14:35 0,4 C 98 % 1015,0 hPa 0,7 l/m 0,0 km/h (0 Bft) O-SO 112 0,1 C 4,7 C 0,0 km/h (0 Bft)
11.10.2013 14:40 0,4 C 98 % 1015,0 hPa 0,7 l/m 0,0 km/h (0 Bft) O-SO 112 0,1 C 4,7 C 0,0 km/h (0 Bft)
11.10.2013 14:45 0,4 C 98 % 1015,1 hPa 0,0 l/m 0,0 km/h (0 Bft) O-SO 112 0,1 C 4,7 C 0,0 km/h (0 Bft)
11.10.2013 14:50 0,4 C 98 % 1015,1 hPa 0,7 l/m 0,0 km/h (0 Bft) O-SO 112 0,1 C 4,7 C 0,0 km/h (0 Bft)
11.10.2013 14:55 0,4 C 98 % 1015,1 hPa 0,0 l/m 0,0 km/h (0 Bft) O-SO 112 0,1 C 4,7 C 0,0 km/h (0 Bft)
11.10.2013 15:00 0,4 C 98 % 1015,1 hPa 0,0 l/m 0,0 km/h (0 Bft) O-SO 112 0,1 C 4,7 C 0,0 km/h (0 Bft)
11.10.2013 15:05 0,4 C 98 % 1015,2 hPa 0,0 l/m 0,0 km/h (0 Bft) O-SO 112 0,1 C 4,7 C 0,0 km/h (0 Bft)
11.10.2013 15:10 0,4 C 98 % 1015,2 hPa 0,7 l/m 0,0 km/h (0 Bft) O-SO 112 0,1 C 4,7 C 0,0 km/h (0 Bft)
11.10.2013 15:15 0,4 C 98 % 1015,2 hPa 0,0 l/m 0,0 km/h (0 Bft) O-SO 112 0,1 C 4,7 C 0,0 km/h (0 Bft)
11.10.2013 15:20 0,4 C 98 % 1015,2 hPa 0,7 l/m 0,0 km/h (0 Bft) O-SO 112 0,1 C 4,7 C 0,0 km/h (0 Bft)
11.10.2013 15:25 0,4 C 98 % 1015,1 hPa 0,0 l/m 0,0 km/h (0 Bft) O-SO 112 0,1 C 4,7 C 0,0 km/h (0 Bft)
11.10.2013 15:30 0,4 C 98 % 1015,1 hPa 0,0 l/m 0,0 km/h (0 Bft) O-SO 112 0,1 C 4,7 C 0,0 km/h (0 Bft)
11.10.2013 15:35 0,4 C 98 % 1015,1 hPa 0,7 l/m 0,0 km/h (0 Bft) O-SO 112 0,1 C 4,7 C 0,0 km/h (0 Bft)
11.10.2013 15:40 0,4 C 98 % 1015,1 hPa 0,0 l/m 0,0 km/h (0 Bft) O-SO 112 0,1 C 4,7 C 0,0 km/h (0 Bft)
11.10.2013 15:45 0,4 C 98 % 1015,2 hPa 0,0 l/m 0,0 km/h (0 Bft) O-SO 112 0,1 C 4,7 C 0,0 km/h (0 Bft)
11.10.2013 15:50 0,4 C 98 % 1015,2 hPa 0,0 l/m 0,0 km/h (0 Bft) O-SO 112 0,1 C 4,7 C 0,0 km/h (0 Bft)
11.10.2013 15:55 0,4 C 98 % 1015,2 hPa 0,0 l/m 0,0 km/h (0 Bft) O-SO 112 0,1 C 4,7 C 0,0 km/h (0 Bft)
11.10.2013 16:00 0,4 C 98 % 1015,2 hPa 0,7 l/m 0,0 km/h (0 Bft) O-SO 112 0,1 C 4,7 C 0,0 km/h (0 Bft)
11.10.2013 16:05 0,4 C 98 % 1015,2 hPa 0,0 l/m 0,0 km/h (0 Bft) O-SO 112 0,1 C 4,7 C 0,0 km/h (0 Bft)
11.10.2013 16:10 0,4 C 98 % 1015,2 hPa 0,0 l/m 0,0 km/h (0 Bft) O-SO 112 0,1 C 4,7 C 0,0 km/h (0 Bft)
11.10.2013 16:15 0,4 C 98 % 1015,2 hPa 0,0 l/m 0,0 km/h (0 Bft) O-SO 112 0,1 C 4,7 C 0,0 km/h (0 Bft)
11.10.2013 16:20 0,4 C 98 % 1015,2 hPa 0,0 l/m 0,0 km/h (0 Bft) O-SO 112 0,1 C 4,7 C 0,0 km/h (0 Bft)
11.10.2013 16:25 0,4 C 98 % 1015,7 hPa 0,0 l/m 0,0 km/h (0 Bft) O-SO 112 0,1 C 4,7 C 0,0 km/h (0 Bft)
11.10.2013 16:30 0,4 C 98 % 1015,7 hPa 0,0 l/m 0,0 km/h (0 Bft) O-SO 112 0,1 C 4,7 C 0,0 km/h (0 Bft)
11.10.2013 16:35 0,4 C 98 % 1015,7 hPa 0,0 l/m 0,0 km/h (0 Bft) O-SO 112 0,1 C 4,7 C 0,0 km/h (0 Bft)
11.10.2013 16:40 3,4 C 94 % 1015,7 hPa 0,0 l/m 0,0 km/h (0 Bft) O-SO 112 2,5 C 4,7 C 0,0 km/h (0 Bft)
11.10.2013 16:45 3,1 C 94 % 1016,1 hPa 0,0 l/m 0,0 km/h (0 Bft) O-SO 112 2,2 C 4,7 C 0,0 km/h (0 Bft)
11.10.2013 16:50 2,9 C 95 % 1016,1 hPa 0,0 l/m 0,0 km/h (0 Bft) O-SO 112 2,2 C 4,7 C 0,0 km/h (0 Bft)
11.10.2013 16:55 2,8 C 95 % 1016,1 hPa 0,0 l/m 0,0 km/h (0 Bft) O-SO 112 2,1 C 4,7 C 0,0 km/h (0 Bft)
11.10.2013 17:00 2,7 C 95 % 1016,1 hPa 0,0 l/m 0,0 km/h (0 Bft) O-SO 112 2,0 C 4,7 C 0,0 km/h (0 Bft)
11.10.2013 17:05 2,8 C 95 % 1015,9 hPa 0,7 l/m 0,0 km/h (0 Bft) O-SO 112 2,1 C 4,7 C 0,0 km/h (0 Bft)
11.10.2013 17:10 3,0 C 94 % 1015,9 hPa 0,0 l/m 0,0 km/h (0 Bft) O-SO 112 2,1 C 4,7 C 0,0 km/h (0 Bft)
11.10.2013 17:15 2,8 C 95 % 1015,9 hPa 0,0 l/m 0,0 km/h (0 Bft) O-SO 112 2,1 C 4,7 C 0,0 km/h (0 Bft)
11.10.2013 17:20 2,9 C 95 % 1015,9 hPa 0,0 l/m 0,0 km/h (0 Bft) O-SO 112 2,2 C 4,7 C 0,0 km/h (0 Bft)
11.10.2013 17:25 2,7 C 96 % 1016,3 hPa 0,0 l/m 0,0 km/h (0 Bft) O-SO 112 2,1 C 4,7 C 0,0 km/h (0 Bft)
11.10.2013 17:30 2,8 C 96 % 1016,3 hPa 0,0 l/m 0,0 km/h (0 Bft) O-SO 112 2,2 C 4,7 C 0,0 km/h (0 Bft)
11.10.2013 17:35 2,6 C 96 % 1016,3 hPa 0,0 l/m 0,0 km/h (0 Bft) O-SO 112 2,0 C 4,7 C 0,0 km/h (0 Bft)
11.10.2013 17:40 2,6 C 96 % 1016,3 hPa 0,0 l/m 0,0 km/h (0 Bft) O-SO 112 2,0 C 4,7 C 0,0 km/h (0 Bft)
11.10.2013 17:45 2,7 C 96 % 1016,3 hPa 0,0 l/m 0,0 km/h (0 Bft) O-SO 112 2,1 C 4,7 C 0,0 km/h (0 Bft)
11.10.2013 17:50 2,7 C 96 % 1015,9 hPa 0,0 l/m 0,0 km/h (0 Bft) O-SO 112 2,1 C 4,7 C 0,0 km/h (0 Bft)
11.10.2013 17:55 2,6 C 96 % 1015,9 hPa 0,0 l/m 0,0 km/h (0 Bft) O-SO 112 2,0 C 4,7 C 0,0 km/h (0 Bft)
11.10.2013 18:00 2,4 C 96 % 1015,9 hPa 0,0 l/m 0,0 km/h (0 Bft) O-SO 112 1,8 C 4,7 C 0,0 km/h (0 Bft)
11.10.2013 18:05 2,5 C 96 % 1015,9 hPa 0,0 l/m 0,0 km/h (0 Bft) O-SO 112 1,9 C 4,7 C 0,0 km/h (0 Bft)
11.10.2013 18:10 2,4 C 96 % 1015,8 hPa 0,0 l/m 0,0 km/h (0 Bft) O-SO 112 1,8 C 4,7 C 0,0 km/h (0 Bft)
11.10.2013 18:15 2,3 C 96 % 1015,8 hPa 0,0 l/m 0,0 km/h (0 Bft) O-SO 112 1,7 C 4,7 C 0,0 km/h (0 Bft)
11.10.2013 18:20 2,2 C 96 % 1015,8 hPa 0,7 l/m 0,0 km/h (0 Bft) O-SO 112 1,6 C 4,7 C 0,0 km/h (0 Bft)
11.10.2013 18:25 2,1 C 96 % 1015,8 hPa 0,0 l/m 0,0 km/h (0 Bft) O-SO 112 1,5 C 4,7 C 0,0 km/h (0 Bft)
11.10.2013 18:30 1,9 C 96 % 1016,0 hPa 0,0 l/m 0,0 km/h (0 Bft) O-SO 112 1,3 C 4,7 C 0,0 km/h (0 Bft)
11.10.2013 18:35 1,7 C 96 % 1016,0 hPa 0,0 l/m 0,0 km/h (0 Bft) O-SO 112 1,1 C 4,7 C 0,0 km/h (0 Bft)
11.10.2013 18:40 1,4 C 96 % 1016,0 hPa 0,0 l/m 0,0 km/h (0 Bft) O-SO 112 0,8 C 4,7 C 0,0 km/h (0 Bft)
11.10.2013 18:45 1,4 C 96 % 1016,0 hPa 0,0 l/m 0,0 km/h (0 Bft) O-SO 112 0,8 C 4,7 C 0,0 km/h (0 Bft)
11.10.2013 18:50 1,2 C 96 % 1016,2 hPa 0,0 l/m 0,0 km/h (0 Bft) O-SO 112 0,6 C 4,7 C 0,0 km/h (0 Bft)
11.10.2013 18:55 1,1 C 96 % 1016,2 hPa 0,0 l/m 0,0 km/h (0 Bft) O-SO 112 0,5 C 4,7 C 0,0 km/h (0 Bft)
11.10.2013 19:00 1,1 C 96 % 1016,2 hPa 0,0 l/m 0,0 km/h (0 Bft) O-SO 112 0,5 C 4,7 C 0,0 km/h (0 Bft)
11.10.2013 19:05 1,1 C 96 % 1016,2 hPa 0,0 l/m 0,0 km/h (0 Bft) O-SO 112 0,5 C 4,7 C 0,0 km/h (0 Bft)
11.10.2013 19:10 0,9 C 97 % 1016,2 hPa 0,0 l/m 0,0 km/h (0 Bft) O-SO 112 0,5 C 4,7 C 0,0 km/h (0 Bft)
11.10.2013 19:15 0,7 C 97 % 1016,2 hPa 0,0 l/m 0,0 km/h (0 Bft) O-SO 112 0,3 C 4,7 C 0,0 km/h (0 Bft)
11.10.2013 19:20 0,7 C 97 % 1016,2 hPa 0,0 l/m 0,0 km/h (0 Bft) O-SO 112 0,3 C 4,7 C 0,0 km/h (0 Bft)
11.10.2013 19:25 0,8 C 97 % 1016,2 hPa 0,0 l/m 0,0 km/h (0 Bft) O-SO 112 0,4 C 4,7 C 0,0 km/h (0 Bft)
11.10.2013 19:30 0,6 C 97 % 1015,9 hPa 0,0 l/m 0,0 km/h (0 Bft) O-SO 112 0,2 C 4,7 C 0,0 km/h (0 Bft)
11.10.2013 19:35 0,6 C 97 % 1015,9 hPa 0,0 l/m 0,0 km/h (0 Bft) O-SO 112 0,2 C 4,7 C 0,0 km/h (0 Bft)
11.10.2013 19:40 0,8 C 97 % 1015,9 hPa 0,0 l/m 0,0 km/h (0 Bft) O-SO 112 0,4 C 4,7 C 0,0 km/h (0 Bft)
11.10.2013 19:45 0,7 C 97 % 1015,9 hPa 0,0 l/m 0,0 km/h (0 Bft) O-SO 112 0,3 C 4,7 C 0,0 km/h (0 Bft)
11.10.2013 19:50 0,7 C 97 % 1016,1 hPa 0,0 l/m 0,0 km/h (0 Bft) O-SO 112 0,3 C 4,7 C 0,0 km/h (0 Bft)
11.10.2013 19:55 0,5 C 97 % 1016,1 hPa 0,0 l/m 0,0 km/h (0 Bft) O-SO 112 0,1 C 4,7 C 0,0 km/h (0 Bft)
11.10.2013 20:00 0,7 C 97 % 1016,1 hPa 0,0 l/m 2,6 km/h (1 Bft) N-NW 337 0,3 C 0,6 C 3,5 km/h (1 Bft)
11.10.2013 20:05 0,7 C 97 % 1016,1 hPa 0,0 l/m 1,8 km/h (1 Bft) N-NO 22 0,3 C 0,8 C 0,0 km/h (0 Bft)
11.10.2013 20:10 0,8 C 97 % 1016,0 hPa 0,0 l/m 0,8 km/h (0 Bft) NO 45 0,4 C 0,8 C 4,2 km/h (1 Bft)
11.10.2013 20:15 0,9 C 97 % 1016,0 hPa 0,0 l/m 0,5 km/h (0 Bft) NO 45 0,5 C 0,8 C 1,6 km/h (1 Bft)
11.10.2013 20:20 1,1 C 97 % 1016,0 hPa 0,0 l/m 0,6 km/h (0 Bft) N-NO 22 0,7 C 0,9 C 0,0 km/h (0 Bft)
11.10.2013 20:25 1,0 C 97 % 1016,0 hPa 0,0 l/m 0,8 km/h (0 Bft) N-NO 22 0,6 C 0,8 C 2,1 km/h (1 Bft)
11.10.2013 20:30 0,9 C 97 % 1016,3 hPa 0,0 l/m 0,3 km/h (0 Bft) NO 45 0,5 C 0,7 C 0,0 km/h (0 Bft)
11.10.2013 20:35 0,9 C 97 % 1016,3 hPa 0,0 l/m 0,6 km/h (0 Bft) O-NO 67 0,5 C 0,5 C 2,9 km/h (1 Bft)
11.10.2013 20:40 0,9 C 97 % 1016,3 hPa 0,0 l/m 1,3 km/h (1 Bft) NO 45 0,5 C 0,5 C 0,0 km/h (0 Bft)
11.10.2013 20:45 0,6 C 97 % 1016,3 hPa 0,0 l/m 1,1 km/h (1 Bft) NO 45 0,2 C 0,2 C 0,0 km/h (0 Bft)
11.10.2013 20:50 0,5 C 97 % 1016,4 hPa 0,0 l/m 1,0 km/h (0 Bft) O 90 0,1 C 0,0 C 2,6 km/h (1 Bft)
11.10.2013 20:55 0,4 C 97 % 1016,4 hPa 0,0 l/m 1,9 km/h (1 Bft) NO 45 -0,0 C -0,1 C 2,7 km/h (1 Bft)
11.10.2013 21:00 0,2 C 97 % 1016,4 hPa 0,0 l/m 1,6 km/h (1 Bft) N-NO 22 -0,2 C -0,2 C 0,0 km/h (0 Bft)
11.10.2013 21:05 0,4 C 97 % 1016,4 hPa 0,0 l/m 1,6 km/h (1 Bft) O 90 -0,0 C -0,5 C 6,1 km/h (2 Bft)
11.10.2013 21:10 0,2 C 97 % 1016,2 hPa 0,0 l/m 3,1 km/h (1 Bft) O-NO 67 -0,2 C -0,8 C 6,8 km/h (2 Bft)
11.10.2013 21:15 0,1 C 97 % 1016,2 hPa 0,0 l/m 3,1 km/h (1 Bft) O-SO 112 -0,3 C -0,8 C 0,0 km/h (0 Bft)
11.10.2013 21:20 -0,2 C 97 % 1016,2 hPa 0,0 l/m 1,0 km/h (0 Bft) NO 45 -0,6 C -0,7 C 0,0 km/h (0 Bft)
11.10.2013 21:25 -0,5 C 97 % 1016,2 hPa 0,0 l/m 0,0 km/h (0 Bft) N 360 -0,9 C -1,0 C 0,0 km/h (0 Bft)
11.10.2013 21:30 -0,7 C 97 % 1016,2 hPa 0,0 l/m 0,0 km/h (0 Bft) N 360 -1,1 C -1,2 C 0,0 km/h (0 Bft)
11.10.2013 21:35 -0,9 C 97 % 1016,2 hPa 0,0 l/m 0,0 km/h (0 Bft) N-NO 22 -1,3 C -1,3 C 0,0 km/h (0 Bft)
11.10.2013 21:40 -1,0 C 97 % 1016,2 hPa 0,0 l/m 0,0 km/h (0 Bft) O-SO 112 -1,4 C -1,4 C 0,0 km/h (0 Bft)
11.10.2013 21:45 -0,9 C 97 % 1016,2 hPa 0,0 l/m 0,5 km/h (0 Bft) NO 45 -1,3 C -1,4 C 2,3 km/h (1 Bft)
11.10.2013 21:50 -0,5 C 97 % 1016,3 hPa 0,0 l/m 1,4 km/h (1 Bft) O 90 -0,9 C -1,4 C 3,5 km/h (1 Bft)
11.10.2013 21:55 -0,4 C 97 % 1016,3 hPa 0,0 l/m 1,6 km/h (1 Bft) O-SO 112 -0,8 C -1,2 C 0,0 km/h (0 Bft)
11.10.2013 22:00 -0,5 C 97 % 1016,3 hPa 0,0 l/m 0,6 km/h (0 Bft) O-SO 112 -0,9 C -1,4 C 0,0 km/h (0 Bft)
11.10.2013 22:05 -0,5 C 97 % 1016,3 hPa 0,0 l/m 0,3 km/h (0 Bft) NO 45 -0,9 C -1,6 C 1,6 km/h (1 Bft)
11.10.2013 22:10 -0,8 C 97 % 1016,3 hPa 0,0 l/m 0,2 km/h (0 Bft) O-SO 112 -1,2 C -1,8 C 0,0 km/h (0 Bft)
11.10.2013 22:15 -0,9 C 97 % 1016,3 hPa 0,0 l/m 0,5 km/h (0 Bft) O-NO 67 -1,3 C -1,9 C 3,1 km/h (1 Bft)
11.10.2013 22:20 -0,9 C 97 % 1016,3 hPa 0,0 l/m 1,1 km/h (1 Bft) N-NW 337 -1,3 C -1,8 C 0,0 km/h (0 Bft)
11.10.2013 22:25 -1,1 C 97 % 1016,3 hPa 0,0 l/m 1,3 km/h (1 Bft) W-NW 292 -1,5 C -1,8 C 0,0 km/h (0 Bft)
11.10.2013 22:30 -1,1 C 97 % 1016,6 hPa 0,0 l/m 0,3 km/h (0 Bft) NO 45 -1,5 C -1,9 C 1,8 km/h (1 Bft)
11.10.2013 22:35 -1,0 C 97 % 1016,6 hPa 0,0 l/m 0,3 km/h (0 Bft) N-NW 337 -1,4 C -1,9 C 1,8 km/h (1 Bft)
11.10.2013 22:40 -1,0 C 97 % 1016,6 hPa 0,0 l/m 1,0 km/h (0 Bft) N-NW 337 -1,4 C -1,0 C 0,0 km/h (0 Bft)
11.10.2013 22:45 -1,1 C 97 % 1016,6 hPa 0,0 l/m 0,8 km/h (0 Bft) NO 45 -1,5 C -1,0 C 1,9 km/h (1 Bft)
11.10.2013 22:50 -1,1 C 97 % 1016,9 hPa 0,0 l/m 0,3 km/h (0 Bft) NO 45 -1,5 C -1,4 C 1,8 km/h (1 Bft)
11.10.2013 22:55 -1,0 C 97 % 1016,9 hPa 0,0 l/m 0,5 km/h (0 Bft) NO 45 -1,4 C -1,5 C 0,0 km/h (0 Bft)
11.10.2013 23:00 -1,2 C 97 % 1016,9 hPa 0,0 l/m 0,3 km/h (0 Bft) N-NW 337 -1,6 C -1,8 C 0,0 km/h (0 Bft)
11.10.2013 23:05 -1,5 C 97 % 1016,9 hPa 0,0 l/m 0,0 km/h (0 Bft) N 360 -1,9 C -1,8 C 0,0 km/h (0 Bft)
11.10.2013 23:10 -1,3 C 97 % 1016,8 hPa 0,0 l/m 0,0 km/h (0 Bft) N-NW 337 -1,7 C -2,0 C 0,0 km/h (0 Bft)
11.10.2013 23:15 -1,6 C 97 % 1016,8 hPa 0,0 l/m 0,0 km/h (0 Bft) N-NW 337 -2,0 C -2,0 C 0,0 km/h (0 Bft)
11.10.2013 23:20 -1,7 C 97 % 1016,8 hPa 0,0 l/m 0,0 km/h (0 Bft) N-NO 22 -2,1 C -2,1 C 0,0 km/h (0 Bft)
11.10.2013 23:25 -1,5 C 97 % 1016,8 hPa 0,0 l/m 0,0 km/h (0 Bft) N-NO 22 -1,9 C -2,1 C 0,0 km/h (0 Bft)
11.10.2013 23:30 -1,6 C 97 % 1016,9 hPa 0,0 l/m 0,0 km/h (0 Bft) N 360 -2,0 C -2,0 C 0,0 km/h (0 Bft)
11.10.2013 23:35 -1,7 C 97 % 1016,9 hPa 0,0 l/m 0,0 km/h (0 Bft) NO 45 -2,1 C -2,2 C 0,0 km/h (0 Bft)
11.10.2013 23:40 -1,7 C 97 % 1016,9 hPa 0,0 l/m 1,0 km/h (0 Bft) S 180 -2,1 C -2,1 C 2,9 km/h (1 Bft)
11.10.2013 23:45 -1,7 C 97 % 1016,9 hPa 0,0 l/m 1,3 km/h (1 Bft) S-SW 202 -2,1 C -2,1 C 0,0 km/h (0 Bft)
11.10.2013 23:50 -1,8 C 97 % 1016,6 hPa 0,0 l/m 0,6 km/h (0 Bft) O 90 -2,2 C -2,2 C 1,8 km/h (1 Bft)
11.10.2013 23:55 -1,8 C 97 % 1016,6 hPa 0,0 l/m 0,2 km/h (0 Bft) O 90 -2,2 C -2,2 C 0,0 km/h (0 Bft)
_ Min-Zeit 23:55 17:10 05:40 - 23:35 - - 23:55 23:55 23:55
Minimum _ -1,8 C 94 % 1011,1 hPa - 0,0 km/h (0 Bft) - - -2,2 C -2,2 C 0,0 km/h (0 Bft)
_ Max-Zeit 16:40 16:35 23:45 18:20 21:15 - - 16:40 19:55 21:10
Maximum _ 3,4 C 98 % 1016,9 hPa 0,7 l/m 3,1 km/h
O-SO (1 Bft)
- - 2,5 C 4,7 C 6,8 km/h
O-NO (2 Bft)
Durchschnitt _ 0,4 C 98 % 1014,0 hPa #16,5 l/m 0,1 km/h (0 Bft) NO - 0,1 C 1,9 C 0,2 km/h (0 Bft)